Вернуться в каталог

DELTA 1 DEB

АктивенSSO
NORAD 21351·DEBRIS·🇺🇸 United States

Запущен Jun 12, 1975 с Vandenberg Space Force Base

Loading…

Ближайшие Пролёты (ближайшие 24 часа)

TLE

СвежийSource: Space-Track

Эпоха: Sep 14, 2026, 13:48 UTC

1 21351U 75052BV  26257.57510742 -.00000002  00000-0  82611-4 0  9999
2 21351  99.8586  18.1451 0066170 104.4771 319.9696 13.31656040716100

Отслеживайте DELTA 1 DEB в реальном времени с AllMySat

Download on the App Store